[[{"header":{"parameterUnit":"m.s-1","parameterCategory":2,"la1":30.2991,"la2":30.254,"lo1":-89.0895,"lo2":-89.0444,"dy":0.0017,"dx":0.0017,"nx":28,"ny":28,"refTime":"2024-05-08T09:00:00:Z","depth":"0","parameterNumber":2,"parameterNumberName":"U-component_of_CURRENTS"},"data":[0,0,0,0,0,0,0,0,0,0,0,0,0,0,0,0,0,0,0,0,0,0,0,0,0,0,0,0,0,0,0,0,0,0,0,0,0,0,0,0,0,0,0,0,0,0,0,0,0,0,0,0,0,0,0,0,0,0,0.2833,0.2833,0,0.2875,0.2876,0.2876,0.2872,0.2872,0.2871,0.2871,0.291,0.2911,0.2913,0,0,0,0,0,0,0,0,0,0,0,0,0,0.2793,0.2793,0.2832,0.2833,0.2834,0.2875,0.2876,0.2876,0.2872,0.2872,0.2871,0.287,0.2909,0.2911,0.2913,0,0,0,0,0,0,0,0,0,0,0,0,0,0.2819,0.2793,0.2832,0.2837,0.2838,0.2875,0.2876,0.2876,0.2873,0.2872,0.2871,0.287,0.2908,0.2911,0.2913,0.2945,0,0,0.292,0.2921,0,0,0,0,0,0,0,0,0.2818,0.2821,0.2836,0.2837,0.2838,0.2868,0.2876,0.2899,0.2873,0.2859,0.2871,0.287,0.2897,0.29,0.2909,0.2947,0.2948,0.2921,0.2922,0.2923,0.2924,0,0,0,0,0,0,0,0.2816,0.2819,0.2849,0.2837,0.2838,0.2853,0.2856,0.2881,0.2881,0.286,0.286,0.2866,0.2897,0.2906,0.291,0.2949,0.292,0.2923,0.2924,0.2925,0.3085,0.3087,0,0,0,0,0,0,0.2811,0.2817,0.2847,0.285,0.2827,0.2855,0.2857,0.2859,0.2881,0.2884,0.2867,0.2866,0.2903,0.2907,0.2911,0.2987,0.2923,0.2925,0.2927,0.3082,0.3085,0.3088,0,0,0,0,0,0,0.281,0.2813,0.2845,0.2835,0.2841,0.2856,0.2858,0.286,0.2872,0.2887,0.2889,0.2877,0.2902,0.2908,0.295,0.2987,0.2926,0.2928,0.3079,0.3083,0.3087,0.3116,0,0,0,0,0,0,0.2809,0.2812,0.2815,0.2835,0.2841,0.2873,0.2859,0.2862,0.2878,0.2877,0.2897,0.2899,0.2902,0.2947,0.2952,0.2989,0.293,0.3075,0.308,0.3085,0.3111,0.312,0.3128,0,0,0,0,0,0.2807,0.2812,0.2815,0.2819,0.2843,0.2874,0.2879,0.2886,0.2879,0.2892,0.2912,0.2899,0.2985,0.295,0.2956,0.2995,0.3072,0.3079,0.3085,0.3107,0.3119,0.3128,0,0,0,0,0,0,0.2797,0.2813,0.2816,0.2825,0.2851,0.2873,0.2885,0.2892,0.2918,0.2916,0.2925,0.293,0.2993,0.2994,0.2956,0.3063,0.3031,0.3039,0.3046,0.3057,0.3065,0.3055,0.2932,0,0,0,0,0,0.2796,0.2802,0.2827,0.2836,0.2848,0.2869,0.2882,0.2891,0.2915,0.2924,0.2939,0.2971,0.3027,0.3037,0.3081,0.3122,0.3119,0.3158,0.3166,0.3173,0.3174,0.3213,0.3224,0.3109,0.3109,0.3109,0,0,0.2794,0.2805,0.2808,0.2835,0.2852,0.2881,0.2875,0.2899,0.2929,0.2926,0.2967,0.3006,0.3051,0.3111,0.3138,0.3108,0.3205,0.3181,0.3186,0.3183,0.3221,0.3231,0.3241,0.3114,0.3113,0.3112,0,0,0.2799,0.2805,0.2815,0.284,0.2871,0.289,0.29,0.2929,0.2946,0.2997,0.302,0.3075,0.3132,0.3173,0.3203,0.3286,0.3263,0.3306,0.332,0.3359,0.3367,0.3375,0.3374,0.3381,0.3292,0.3293,0.3293,0,0.2798,0.2809,0.2826,0.285,0.287,0.2896,0.2921,0.2955,0.2995,0.3023,0.3016,0.3138,0.3168,0.3256,0.3287,0.3304,0.3304,0.3268,0.3365,0.3373,0.338,0.3378,0.3385,0.3295,0.3294,0.3294,0.3294,0,0.2813,0.2828,0.2839,0.2875,0.2906,0.2929,0.2977,0.3013,0.304,0.3075,0.3164,0.321,0.3277,0.3308,0.3321,0.3402,0.3378,0.3381,0.3326,0.3393,0.3387,0.3394,0.3298,0.3297,0.3296,0.3296,0,0,0.279,0.2837,0.284,0.2854,0.2916,0.2937,0.3006,0.3069,0.3111,0.3168,0.3225,0.3329,0.3346,0.3383,0.341,0.3437,0.3488,0.3423,0.3424,0.3398,0.3543,0.3478,0.3478,0.35,0.3502,0.3503,0.3512,0,0.2794,0.2823,0.2858,0.2896,0.2914,0.2972,0.303,0.3098,0.3158,0.3222,0.3293,0.3362,0.3378,0.3405,0.3446,0.3494,0.3511,0.3484,0.3504,0.3504,0.3418,0.3487,0.3368,0.3362,0.3519,0.352,0.3521,0,0.2792,0.281,0.2839,0.2893,0.2908,0.2945,0.3032,0.3093,0.3208,0.3257,0.3342,0.3388,0.3471,0.3459,0.3551,0.3529,0.3539,0.3555,0.3556,0.3488,0.3453,0.3328,0.3369,0.3323,0.3531,0.3531,0.353,0,0.2744,0.2794,0.2808,0.2827,0.2903,0.2935,0.2989,0.31,0.3161,0.3277,0.3329,0.3426,0.3482,0.3525,0.3577,0.3561,0.3653,0.3634,0.3578,0.3571,0.3472,0.3453,0.345,0.3682,0.3682,0.3682,0.3682,0,0.2725,0.2733,0.2782,0.2789,0.2823,0.2895,0.296,0.3038,0.3153,0.3233,0.3335,0.3404,0.3503,0.357,0.359,0.3615,0.3668,0.359,0.3582,0.3478,0.3461,0.3416,0.3402,0.3682,0.3682,0.3682,0.3682,0,0.2668,0.2701,0.2716,0.2777,0.28,0.2826,0.2935,0.2984,0.3107,0.3214,0.3249,0.3403,0.3491,0.3566,0.3643,0.3629,0.3554,0.364,0.3494,0.3468,0.3337,0.3329,0.3132,0.3057,0.356,0.3558,0.3557,0,0.264,0.264,0.2688,0.27,0.2725,0.278,0.2823,0.295,0.3017,0.3208,0.3252,0.3378,0.346,0.3552,0.3558,0.3569,0.3499,0.3445,0.3398,0.3322,0.3308,0.3144,0.3085,0.3272,0.3268,0.3266,0.3263,0,0.2588,0.2601,0.2614,0.2635,0.2665,0.2706,0.2783,0.2823,0.2983,0.307,0.3186,0.326,0.3386,0.3376,0.3418,0.3401,0.3283,0.3385,0.336,0.3128,0.2897,0.2823,0.3255,0.3238,0.3241,0.3243,0.3244,0.3245,0.2543,0.2533,0.2549,0.2557,0.2587,0.2608,0.261,0.2704,0.2778,0.2892,0.3041,0.3114,0.3227,0.3269,0.3239,0.3133,0.3097,0.3041,0.3049,0.2897,0.2783,0.3142,0.3087,0.3088,0.309,0.3091,0.3092,0,0.2475,0.2468,0.2473,0.247,0.245,0.2508,0.2556,0.2542,0.2569,0.2728,0.2811,0.2916,0.2922,0.2985,0.295,0.284,0.2686,0.2762,0.254,0.2512,0.2892,0.2845,0.2669,0.267,0.267,0.267,0.267,0.267,0.2442,0.2406,0.2395,0.2327,0.2322,0.2271,0.2266,0.227,0.2345,0.2407,0.2481,0.2591,0.2765,0.2808,0.2713,0.2638,0.247,0.2301,0.233,0.2665,0.2692,0.2718,0.2671,0.2463,0.2462,0.1822,0.1817,0.1814]},{"header":{"parameterUnit":"m.s-1","parameterCategory":2,"la1":30.2991,"la2":30.254,"lo1":-89.0895,"lo2":-89.0444,"dy":0.0017,"dx":0.0017,"nx":28,"ny":28,"refTime":"2024-05-08T09:00:00:Z","depth":"0","parameterNumber":3,"parameterNumberName":"V-component_of_CURRENTS"},"data":[0,0,0,0,0,0,0,0,0,0,0,0,0,0,0,0,0,0,0,0,0,0,0,0,0,0,0,0,0,0,0,0,0,0,0,0,0,0,0,0,0,0,0,0,0,0,0,0,0,0,0,0,0,0,0,0,0,0,0.0327,0.0326,0,0.0294,0.0293,0.0293,0.0267,0.0267,0.0267,0.0267,0.022,0.0219,0.0218,0,0,0,0,0,0,0,0,0,0,0,0,0,0.0326,0.0327,0.0327,0.0326,0.0326,0.0294,0.0293,0.0293,0.0267,0.0267,0.0267,0.0266,0.022,0.0219,0.0218,0,0,0,0,0,0,0,0,0,0,0,0,0,0.0313,0.0327,0.0327,0.031,0.0308,0.0294,0.0293,0.0293,0.0267,0.0267,0.0267,0.0266,0.022,0.0219,0.0217,0.0214,0,0,0.0213,0.0212,0,0,0,0,0,0,0,0,0.0314,0.0313,0.0313,0.0311,0.0309,0.0285,0.0276,0.0266,0.0267,0.0282,0.0267,0.0266,0.0241,0.0237,0.0231,0.0212,0.021,0.0212,0.0211,0.0211,0.021,0,0,0,0,0,0,0,0.0315,0.0314,0.0313,0.0312,0.031,0.029,0.0288,0.0274,0.0263,0.0281,0.0279,0.0276,0.0239,0.0233,0.023,0.0209,0.0212,0.0211,0.021,0.0209,0.0196,0.0196,0,0,0,0,0,0,0.0322,0.0315,0.0314,0.0312,0.0311,0.029,0.0288,0.0292,0.0263,0.0259,0.0277,0.0275,0.0236,0.0232,0.0228,0.0249,0.0211,0.0209,0.0208,0.0195,0.0196,0.0196,0,0,0,0,0,0,0.0323,0.0323,0.0316,0.0313,0.031,0.0291,0.0296,0.0292,0.0289,0.026,0.0255,0.0278,0.0236,0.0231,0.0222,0.0245,0.0209,0.0207,0.0194,0.0195,0.0196,0.0272,0,0,0,0,0,0,0.0323,0.0323,0.033,0.0314,0.0311,0.0318,0.0296,0.0291,0.0287,0.0285,0.026,0.0255,0.0235,0.0225,0.0221,0.0243,0.0206,0.0194,0.0195,0.0196,0.0269,0.0275,0.0281,0,0,0,0,0,0.0323,0.0336,0.0331,0.033,0.0321,0.0318,0.0316,0.0299,0.0288,0.0294,0.0274,0.0256,0.0229,0.0224,0.0219,0.0241,0.0193,0.0194,0.0196,0.0266,0.0274,0.0281,0,0,0,0,0,0,0.0338,0.0334,0.0328,0.0339,0.0333,0.0315,0.0318,0.0305,0.0293,0.0291,0.0261,0.0256,0.0258,0.0236,0.0231,0.0239,0.0209,0.0209,0.0264,0.0271,0.0277,0.0298,0.0205,0,0,0,0,0,0.0345,0.0356,0.0345,0.0355,0.0354,0.0337,0.0333,0.0323,0.031,0.0305,0.0285,0.0266,0.0259,0.0254,0.024,0.0243,0.0218,0.0253,0.026,0.0265,0.0278,0.0258,0.0264,0.0201,0.0201,0.0201,0,0,0.0352,0.0353,0.0357,0.0359,0.0352,0.0365,0.0334,0.0336,0.035,0.0301,0.0311,0.0286,0.0264,0.027,0.0269,0.0255,0.0267,0.0267,0.0272,0.0282,0.026,0.0266,0.0271,0.0202,0.0201,0.0201,0,0,0.0378,0.0375,0.0393,0.0395,0.0393,0.0386,0.039,0.0376,0.0374,0.0378,0.0349,0.034,0.0323,0.0315,0.0309,0.034,0.03,0.0331,0.0382,0.0363,0.0368,0.0372,0.0341,0.0342,0.0336,0.0336,0.0336,0,0.0386,0.0412,0.0398,0.0418,0.0429,0.0401,0.0428,0.0424,0.0408,0.0416,0.0392,0.0375,0.0351,0.0368,0.0377,0.0357,0.0331,0.0358,0.0372,0.0376,0.0379,0.0346,0.0346,0.034,0.0339,0.0339,0.0338,0,0.0427,0.0448,0.046,0.0482,0.049,0.0507,0.0504,0.0508,0.0499,0.0494,0.0502,0.0464,0.0454,0.0445,0.0422,0.0437,0.0405,0.0382,0.0357,0.039,0.0353,0.0352,0.0345,0.0344,0.0342,0.0342,0,0,0.0453,0.0484,0.0491,0.0518,0.0529,0.0544,0.057,0.0592,0.0622,0.0593,0.0623,0.0599,0.0567,0.0558,0.052,0.0504,0.0497,0.0457,0.0454,0.0433,0.0443,0.042,0.0416,0.0473,0.0473,0.0473,0.0406,0,0.0495,0.0551,0.0555,0.0613,0.0644,0.0637,0.0671,0.0684,0.0688,0.0706,0.0668,0.0674,0.0614,0.0608,0.0583,0.0523,0.0498,0.0516,0.0408,0.0405,0.0387,0.0416,0.0458,0.0402,0.0404,0.0404,0.0404,0,0.0539,0.0575,0.0638,0.0694,0.0708,0.0737,0.0792,0.082,0.0834,0.0835,0.0822,0.0782,0.0754,0.0694,0.0607,0.0619,0.054,0.0485,0.048,0.0436,0.0381,0.0369,0.0399,0.0307,0.0402,0.0402,0.0402,0,0.0577,0.0637,0.0694,0.0711,0.0763,0.0795,0.0827,0.086,0.0906,0.0912,0.0936,0.0881,0.0864,0.0762,0.0634,0.0621,0.0531,0.0496,0.0398,0.0395,0.0399,0.0396,0.0336,0.0434,0.0434,0.0434,0.0434,0,0.0626,0.0672,0.0717,0.0749,0.0832,0.0847,0.0936,0.0956,0.1001,0.1074,0.1003,0.1033,0.0881,0.0804,0.067,0.0535,0.0552,0.0418,0.0384,0.0425,0.0425,0.0318,0.026,0.0432,0.0432,0.0433,0.0433,0,0.0661,0.0687,0.0756,0.0821,0.0851,0.0911,0.101,0.1075,0.1103,0.1192,0.1195,0.1151,0.1059,0.0891,0.0731,0.0597,0.0407,0.0398,0.0449,0.0423,0.025,0.0196,0.01,0.0057,0.029,0.0289,0.0288,0,0.0684,0.0721,0.0809,0.0861,0.0895,0.0987,0.1059,0.112,0.1198,0.1274,0.1322,0.1256,0.1241,0.0985,0.074,0.0503,0.0392,0.0365,0.0352,0.0258,0.0172,0.014,0.0109,0.0379,0.0379,0.0379,0.0379,0,0.0727,0.0752,0.0812,0.0919,0.1,0.1108,0.1215,0.1295,0.1382,0.1461,0.1544,0.1536,0.1308,0.1105,0.0766,0.0588,0.0325,0.0359,0.0259,0.024,0.0207,0.0145,0.039,0.038,0.038,0.038,0.038,0.038,0.0755,0.0803,0.0879,0.0984,0.1083,0.1219,0.1323,0.1444,0.1588,0.1734,0.1713,0.176,0.1461,0.1022,0.0743,0.0324,0.0325,0.0222,0.0162,0.0137,0.0107,0.0348,0.03,0.03,0.0299,0.0299,0.0299,0,0.079,0.085,0.0942,0.1071,0.1185,0.1236,0.1421,0.1539,0.1721,0.1873,0.1957,0.1892,0.1497,0.1077,0.0512,0.0206,0.0093,0.0045,0.0021,-0.0004,0.0214,0.023,0.0171,0.0171,0.0171,0.0171,0.0171,0.0171,0.081,0.0896,0.0946,0.1129,0.1228,0.1397,0.151,0.1694,0.1851,0.2078,0.2176,0.2221,0.196,0.0891,0.0222,0.0052,-0.0137,-0.0182,-0.0289,-0.0129,-0.0117,-0.0105,-0.0102,-0.023,-0.0231,-0.0445,-0.0447,-0.0449]}],[{"header":{"parameterUnit":"m.s-1","parameterCategory":2,"la1":30.2991,"la2":30.254,"lo1":-89.0895,"lo2":-89.0444,"dy":0.0017,"dx":0.0017,"nx":28,"ny":28,"refTime":"2024-05-08T09:00:00:Z","depth":"2","parameterNumber":2,"parameterNumberName":"U-component_of_CURRENTS"},"data":[0,0,0,0,0,0,0,0,0,0,0,0,0,0,0,0,0,0,0,0,0,0,0,0,0,0,0,0,0,0,0,0,0,0,0,0,0,0,0,0,0,0,0,0,0,0,0,0,0,0,0,0,0,0,0,0,0,0,0.2629,0.263,0,0.2649,0.2649,0.2649,0.2642,0.2642,0.2642,0.2641,0.2665,0.2666,0.2667,0,0,0,0,0,0,0,0,0,0,0,0,0,0.2609,0.261,0.2629,0.263,0.263,0.2649,0.2649,0.2649,0.2642,0.2642,0.2641,0.2641,0.2665,0.2666,0.2667,0,0,0,0,0,0,0,0,0,0,0,0,0,0.2621,0.261,0.2629,0.263,0.2631,0.2649,0.2649,0.2649,0.2642,0.2642,0.2641,0.2641,0.2664,0.2666,0.2667,0.2683,0,0,0.2671,0.2671,0,0,0,0,0,0,0,0,0.262,0.2621,0.263,0.263,0.2631,0.2644,0.265,0.2661,0.2642,0.2636,0.2641,0.2641,0.266,0.2661,0.2663,0.2684,0.2685,0.2671,0.2672,0.2672,0.2673,0,0,0,0,0,0,0,0.2619,0.262,0.2635,0.263,0.2631,0.2638,0.2638,0.2652,0.2649,0.2637,0.2637,0.2642,0.266,0.2662,0.2664,0.2686,0.2671,0.2672,0.2673,0.2673,0.2794,0.2796,0,0,0,0,0,0,0.2619,0.262,0.2635,0.2636,0.2626,0.2638,0.2639,0.2639,0.2648,0.265,0.2642,0.2641,0.266,0.2662,0.2665,0.2733,0.2672,0.2674,0.2674,0.2791,0.2794,0.2797,0,0,0,0,0,0,0.2619,0.262,0.2634,0.263,0.2632,0.2639,0.2639,0.2639,0.2651,0.2653,0.2654,0.2654,0.266,0.2663,0.2694,0.2732,0.2674,0.2675,0.2788,0.2792,0.2796,0.2839,0,0,0,0,0,0,0.2618,0.262,0.2624,0.263,0.2633,0.2653,0.2639,0.264,0.2655,0.2655,0.2664,0.2665,0.266,0.2692,0.2695,0.2733,0.2676,0.2785,0.279,0.2794,0.2835,0.2844,0.2852,0,0,0,0,0,0.2617,0.2622,0.2624,0.2626,0.2636,0.2654,0.2656,0.2658,0.2657,0.2667,0.2678,0.2665,0.2724,0.2695,0.2698,0.2737,0.2783,0.2789,0.2794,0.2831,0.2842,0.2851,0,0,0,0,0,0,0.2615,0.2622,0.2624,0.263,0.2646,0.2654,0.2663,0.2668,0.2685,0.2687,0.2685,0.2688,0.274,0.2734,0.2702,0.2789,0.2756,0.2763,0.2783,0.2794,0.2802,0.2795,0.2678,0,0,0,0,0,0.2617,0.2621,0.2634,0.2641,0.265,0.2661,0.267,0.2675,0.2689,0.2695,0.2703,0.2725,0.2764,0.2773,0.2801,0.2834,0.283,0.2867,0.2876,0.2883,0.2883,0.292,0.2931,0.2815,0.2815,0.2814,0,0,0.2618,0.2624,0.2625,0.2642,0.2652,0.2672,0.2665,0.2684,0.2707,0.2697,0.2729,0.2758,0.2784,0.2832,0.2854,0.2828,0.2914,0.289,0.2895,0.2891,0.2927,0.2938,0.2947,0.2818,0.2818,0.2817,0,0,0.2623,0.2628,0.2636,0.2653,0.2675,0.2686,0.2697,0.2715,0.2729,0.2768,0.2781,0.2826,0.2865,0.2893,0.2914,0.2986,0.2968,0.3005,0.3027,0.3064,0.3073,0.3081,0.3081,0.3089,0.2997,0.2997,0.2997,0,0.2626,0.2632,0.2643,0.2662,0.2676,0.2696,0.2715,0.274,0.2767,0.279,0.2787,0.288,0.2898,0.2968,0.2996,0.3005,0.3008,0.298,0.3072,0.308,0.3087,0.3086,0.3094,0.3,0.2999,0.2999,0.2999,0,0.2637,0.2649,0.2658,0.2685,0.2707,0.2726,0.2761,0.2792,0.2817,0.2843,0.2919,0.295,0.3002,0.3028,0.3032,0.3106,0.3086,0.3085,0.3037,0.3101,0.3096,0.3104,0.3003,0.3002,0.3002,0.3001,0,0,0.262,0.2656,0.2658,0.2669,0.2718,0.2731,0.2789,0.2839,0.2877,0.2925,0.2976,0.3057,0.3075,0.3102,0.3121,0.3148,0.3203,0.3136,0.3137,0.3121,0.3262,0.3199,0.32,0.3217,0.3219,0.322,0.3233,0,0.2623,0.2644,0.2672,0.2701,0.2713,0.2761,0.2809,0.2864,0.2917,0.2973,0.3032,0.3092,0.3104,0.3132,0.317,0.3206,0.3227,0.3198,0.3216,0.3216,0.314,0.3208,0.2957,0.2944,0.324,0.3241,0.3242,0,0.2619,0.2632,0.2654,0.2696,0.2708,0.2739,0.2813,0.2864,0.2963,0.3008,0.3086,0.3126,0.3201,0.319,0.3273,0.3255,0.3263,0.3275,0.3275,0.3205,0.3168,0.2933,0.2946,0.3254,0.3253,0.3252,0.3251,0,0.2578,0.2617,0.2627,0.2642,0.2702,0.2732,0.2778,0.2874,0.2927,0.3033,0.3083,0.317,0.3226,0.3263,0.3308,0.3292,0.3377,0.3355,0.3299,0.3293,0.3076,0.3049,0.3399,0.3399,0.3399,0.3399,0.3399,0,0.2559,0.2564,0.2605,0.261,0.264,0.27,0.276,0.2828,0.2931,0.3001,0.3096,0.3159,0.3251,0.3312,0.3324,0.3344,0.3396,0.3313,0.3304,0.3085,0.3059,0.3325,0.3316,0.34,0.3399,0.3399,0.3399,0,0.2509,0.2536,0.2547,0.2599,0.262,0.2645,0.2743,0.2785,0.29,0.2995,0.3031,0.3172,0.3253,0.3318,0.3385,0.3366,0.338,0.3366,0.3091,0.305,0.3257,0.325,0.3292,0.3291,0.3289,0.3288,0.3287,0,0.2484,0.2482,0.2525,0.2534,0.2557,0.2608,0.2645,0.276,0.2817,0.2994,0.3029,0.3153,0.3219,0.33,0.3284,0.3283,0.3357,0.3041,0.2971,0.3265,0.3252,0.3248,0.3244,0.2691,0.2685,0.268,0.2676,0,0.2435,0.2449,0.2458,0.2477,0.2503,0.2536,0.2604,0.2639,0.2782,0.2861,0.2963,0.3026,0.3128,0.3033,0.306,0.3021,0.3022,0.2943,0.3331,0.277,0.2702,0.2688,0.2703,0.2633,0.2638,0.2641,0.2643,0.2645,0.2396,0.2386,0.24,0.2406,0.2431,0.2441,0.2437,0.2514,0.2576,0.2663,0.2802,0.2815,0.2859,0.2772,0.2682,0.2606,0.2814,0.2675,0.2687,0.2705,0.2647,0.2582,0.2477,0.248,0.2483,0.2485,0.2487,0,0.2331,0.2325,0.2328,0.232,0.2294,0.235,0.2382,0.2352,0.2363,0.2473,0.2533,0.235,0.2302,0.2333,0.2159,0.2156,0.2106,0.2055,0.1971,0.2017,0.2057,0.1962,0.1612,0.1609,0.1606,0.1603,0,0,0.23,0.2264,0.2251,0.2178,0.2172,0.2111,0.21,0.2075,0.2108,0.208,0.2069,0.2242,0.2301,0.1948,0.1892,0.1724,0.1852,0.1648,0.2358,0.2308,0.2345,0.2431,0.234,0,0,0,0,0]},{"header":{"parameterUnit":"m.s-1","parameterCategory":2,"la1":30.2991,"la2":30.254,"lo1":-89.0895,"lo2":-89.0444,"dy":0.0017,"dx":0.0017,"nx":28,"ny":28,"refTime":"2024-05-08T09:00:00:Z","depth":"2","parameterNumber":3,"parameterNumberName":"V-component_of_CURRENTS"},"data":[0,0,0,0,0,0,0,0,0,0,0,0,0,0,0,0,0,0,0,0,0,0,0,0,0,0,0,0,0,0,0,0,0,0,0,0,0,0,0,0,0,0,0,0,0,0,0,0,0,0,0,0,0,0,0,0,0,0,0.0233,0.0233,0,0.0198,0.0197,0.0197,0.0173,0.0173,0.0172,0.0172,0.0128,0.0127,0.0126,0,0,0,0,0,0,0,0,0,0,0,0,0,0.0237,0.0237,0.0233,0.0233,0.0232,0.0198,0.0197,0.0197,0.0173,0.0173,0.0172,0.0172,0.0128,0.0127,0.0126,0,0,0,0,0,0,0,0,0,0,0,0,0,0.0222,0.0237,0.0233,0.0216,0.0215,0.0198,0.0197,0.0196,0.0173,0.0173,0.0172,0.0172,0.0129,0.0127,0.0125,0.0119,0,0,0.0121,0.012,0,0,0,0,0,0,0,0,0.0223,0.0221,0.0219,0.0218,0.0216,0.019,0.0182,0.017,0.0173,0.0188,0.0172,0.0172,0.0148,0.0145,0.0138,0.0117,0.0115,0.012,0.0119,0.0119,0.0118,0,0,0,0,0,0,0,0.0224,0.0223,0.0219,0.0219,0.0217,0.0196,0.0194,0.018,0.0169,0.0187,0.0185,0.0182,0.0147,0.014,0.0137,0.0115,0.012,0.0119,0.0118,0.0117,0.0099,0.01,0,0,0,0,0,0,0.0232,0.0224,0.022,0.0218,0.0219,0.0196,0.0194,0.0198,0.0169,0.0165,0.0182,0.0181,0.0143,0.0139,0.0135,0.0152,0.0119,0.0117,0.0116,0.0099,0.0099,0.01,0,0,0,0,0,0,0.0232,0.0232,0.0221,0.022,0.0217,0.0197,0.0201,0.0197,0.0195,0.0166,0.0161,0.0184,0.0142,0.0137,0.0129,0.0149,0.0117,0.0115,0.0098,0.0099,0.01,0.0169,0,0,0,0,0,0,0.0232,0.0232,0.0239,0.0221,0.0217,0.0222,0.0201,0.0197,0.0193,0.0191,0.0166,0.0162,0.0142,0.0132,0.0128,0.0146,0.0114,0.0098,0.0098,0.0099,0.0166,0.0172,0.0177,0,0,0,0,0,0.0233,0.0245,0.0239,0.0239,0.0227,0.0222,0.0219,0.0203,0.0194,0.0199,0.018,0.0163,0.0135,0.0131,0.0126,0.0145,0.0097,0.0098,0.0099,0.0164,0.0171,0.0177,0,0,0,0,0,0,0.0248,0.0243,0.0237,0.0246,0.0239,0.0219,0.0221,0.0209,0.0198,0.0196,0.0168,0.0162,0.0162,0.0141,0.0138,0.0141,0.0114,0.0114,0.0164,0.0171,0.0176,0.0196,0.0112,0,0,0,0,0,0.0256,0.0265,0.0253,0.0261,0.0261,0.0242,0.0238,0.0229,0.0215,0.0209,0.019,0.0172,0.0162,0.0157,0.0141,0.0143,0.0118,0.0151,0.0157,0.0161,0.0173,0.015,0.0155,0.0103,0.0103,0.0103,0,0,0.0262,0.0262,0.0266,0.0266,0.0259,0.0269,0.024,0.0241,0.0253,0.0207,0.0215,0.0189,0.0165,0.0168,0.0167,0.0155,0.0162,0.0163,0.0167,0.0176,0.0152,0.0157,0.0161,0.0104,0.0104,0.0104,0,0,0.0286,0.0284,0.0301,0.0301,0.0297,0.029,0.0294,0.0278,0.0277,0.0278,0.025,0.0238,0.022,0.0209,0.0201,0.0227,0.019,0.0219,0.0266,0.0244,0.0248,0.0252,0.0223,0.0223,0.0224,0.0224,0.0224,0,0.0295,0.0318,0.0304,0.0322,0.0331,0.0305,0.0329,0.0323,0.0307,0.0313,0.0292,0.0268,0.0244,0.0253,0.0261,0.0242,0.0217,0.0246,0.0252,0.0255,0.0257,0.0227,0.0226,0.0228,0.0227,0.0227,0.0227,0,0.0332,0.0351,0.0362,0.0381,0.0387,0.0403,0.0397,0.04,0.0392,0.0385,0.0388,0.0349,0.0336,0.0325,0.0302,0.0311,0.0284,0.0261,0.0239,0.0267,0.0233,0.0231,0.0233,0.0232,0.023,0.023,0,0,0.0357,0.0384,0.0391,0.0415,0.0424,0.0436,0.0458,0.0476,0.0502,0.0472,0.0496,0.0468,0.0439,0.0428,0.0391,0.0371,0.036,0.0328,0.0326,0.0306,0.0305,0.0285,0.0281,0.0337,0.0337,0.0337,0.0273,0,0.0395,0.0446,0.0449,0.0502,0.053,0.0522,0.0551,0.056,0.0562,0.0574,0.0533,0.0537,0.0482,0.0476,0.0448,0.0386,0.036,0.038,0.0275,0.0272,0.0257,0.028,0.0293,0.0237,0.0271,0.0271,0.027,0,0.0436,0.0469,0.0527,0.0577,0.059,0.0615,0.0663,0.0688,0.0694,0.0694,0.0678,0.0639,0.0608,0.0553,0.0463,0.0477,0.0401,0.0344,0.034,0.0299,0.025,0.0214,0.0232,0.0267,0.0267,0.0267,0.0268,0,0.0473,0.0527,0.058,0.0595,0.0642,0.067,0.0699,0.0725,0.0766,0.0768,0.0788,0.0731,0.0715,0.0614,0.049,0.0478,0.0383,0.0349,0.0256,0.0253,0.0233,0.0229,0.0284,0.0284,0.0284,0.0284,0.0284,0,0.052,0.0562,0.0603,0.0633,0.071,0.0722,0.0804,0.082,0.0858,0.0923,0.0854,0.0878,0.073,0.0653,0.0523,0.039,0.0405,0.0273,0.0241,0.0257,0.0255,0.0256,0.0254,0.0282,0.0282,0.0283,0.0283,0,0.0555,0.0578,0.0642,0.0701,0.0729,0.0785,0.0878,0.0936,0.096,0.1038,0.1041,0.0992,0.09,0.0738,0.0577,0.045,0.0311,0.0254,0.0278,0.0251,0.0184,0.0186,0.0151,0.015,0.0149,0.0148,0.0147,0,0.0577,0.0612,0.0695,0.0743,0.0775,0.0862,0.0929,0.0983,0.1053,0.1117,0.1157,0.109,0.1066,0.0814,0.0578,0.035,0.0311,0.0196,0.0175,0.0201,0.0173,0.0176,0.0179,0.0169,0.0169,0.0168,0.0168,0,0.062,0.0644,0.07,0.0801,0.0877,0.0979,0.1077,0.1149,0.1226,0.1293,0.1359,0.1342,0.1116,0.0893,0.0571,0.0406,0.0232,0.0181,0.0207,0.0205,0.0214,0.0188,0.0191,0.0165,0.0165,0.0165,0.0166,0.0166,0.0648,0.0694,0.0765,0.0865,0.0958,0.1083,0.118,0.1286,0.1413,0.1526,0.1502,0.1484,0.1218,0.0818,0.0525,0.0212,0.0241,0.0116,0.0119,0.0122,0.014,0.0147,0.0088,0.0088,0.0088,0.0088,0.0088,0,0.0683,0.0739,0.0826,0.0946,0.1052,0.1103,0.1271,0.1368,0.1525,0.1622,0.1679,0.142,0.1162,0.0845,0.0398,0.0134,0.0105,0.0025,0.0054,0.006,0.0064,0.008,0.0011,0.001,0.0009,0.0008,0,0,0.0701,0.0782,0.0828,0.0998,0.1093,0.1249,0.1354,0.1498,0.1604,0.1702,0.17,0.1657,0.1274,0.0927,0.0558,0.0293,0.0234,0.0226,0.0319,0.0405,0.0413,0.0151,0.0186,0,0,0,0,0]}],[{"header":{"parameterUnit":"m.s-1","parameterCategory":2,"la1":30.2991,"la2":30.254,"lo1":-89.0895,"lo2":-89.0444,"dy":0.0017,"dx":0.0017,"nx":28,"ny":28,"refTime":"2024-05-08T09:00:00:Z","depth":"4","parameterNumber":2,"parameterNumberName":"U-component_of_CURRENTS"},"data":[0,0,0,0,0,0,0,0,0,0,0,0,0,0,0,0,0,0,0,0,0,0,0,0,0,0,0,0,0,0,0,0,0,0,0,0,0,0,0,0,0,0,0,0,0,0,0,0,0,0,0,0,0,0,0,0,0,0,0.1762,0.1762,0,0.1769,0.1769,0.1769,0.1793,0.1793,0.1794,0.1795,0.1817,0.1817,0.1817,0,0,0,0,0,0,0,0,0,0,0,0,0,0.1736,0.1736,0.1762,0.1762,0.1763,0.1769,0.1769,0.1769,0.1793,0.1794,0.1794,0.1795,0.1817,0.1817,0.1817,0,0,0,0,0,0,0,0,0,0,0,0,0,0.1743,0.1736,0.1762,0.1777,0.1779,0.1769,0.1769,0.1769,0.1792,0.1794,0.1795,0.1796,0.1817,0.1817,0.1817,0.1792,0,0,0.1816,0.1816,0,0,0,0,0,0,0,0,0.1743,0.1744,0.1775,0.1776,0.1778,0.1784,0.1768,0.1778,0.1792,0.1784,0.1795,0.1796,0.1808,0.1809,0.1803,0.1793,0.1794,0.1816,0.1816,0.1816,0.1816,0,0,0,0,0,0,0,0.1742,0.1743,0.1762,0.1775,0.1777,0.1773,0.1775,0.177,0.1788,0.1785,0.1787,0.1792,0.1809,0.1803,0.1804,0.1794,0.1816,0.1816,0.1816,0.1816,0.1868,0.187,0,0,0,0,0,0,0.1747,0.1743,0.1762,0.1762,0.1766,0.1773,0.1775,0.1778,0.1787,0.1791,0.1791,0.1794,0.1803,0.1804,0.1805,0.187,0.1816,0.1816,0.1815,0.1867,0.1868,0.187,0,0,0,0,0,0,0.1747,0.1749,0.1761,0.1755,0.1757,0.1773,0.1776,0.1778,0.1811,0.1793,0.1796,0.1827,0.1804,0.1805,0.1831,0.1868,0.1815,0.1815,0.1865,0.1867,0.1869,0.194,0,0,0,0,0,0,0.1746,0.1748,0.177,0.1755,0.1758,0.178,0.1775,0.1777,0.1811,0.1815,0.1824,0.1824,0.1805,0.1832,0.1831,0.1867,0.1815,0.1863,0.1866,0.1869,0.1936,0.1945,0.1952,0,0,0,0,0,0.1745,0.176,0.1771,0.1774,0.1781,0.1781,0.1782,0.1794,0.1813,0.1829,0.1838,0.1826,0.185,0.1832,0.1831,0.1868,0.1861,0.1865,0.1868,0.1932,0.1943,0.1952,0,0,0,0,0,0,0.1759,0.1764,0.1775,0.1793,0.1801,0.1787,0.1809,0.1818,0.1836,0.1854,0.1838,0.1839,0.1878,0.1863,0.1844,0.1893,0.1857,0.186,0.1906,0.1916,0.1924,0.1938,0.1815,0,0,0,0,0,0.1773,0.179,0.179,0.181,0.1818,0.1823,0.1834,0.1843,0.1849,0.1861,0.1867,0.1876,0.1883,0.1893,0.1894,0.1916,0.1915,0.1941,0.195,0.1956,0.1968,0.2004,0.2017,0.1881,0.1881,0.1881,0,0,0.1785,0.1791,0.1803,0.1816,0.1826,0.1837,0.1833,0.186,0.188,0.1859,0.1902,0.1907,0.1897,0.1923,0.1939,0.192,0.1993,0.1961,0.1967,0.1975,0.2009,0.2022,0.2034,0.1884,0.1883,0.1883,0,0,0.1802,0.1826,0.1842,0.1853,0.1877,0.1876,0.1895,0.1906,0.1927,0.1959,0.1954,0.1984,0.1995,0.1993,0.1992,0.2046,0.2037,0.2055,0.2106,0.2141,0.2152,0.2162,0.2172,0.2182,0.2057,0.2058,0.2058,0,0.1822,0.1834,0.1848,0.1864,0.1878,0.19,0.1916,0.1935,0.1957,0.198,0.1989,0.2031,0.2027,0.2053,0.2076,0.2065,0.2079,0.2068,0.2152,0.2162,0.2171,0.2178,0.2189,0.2061,0.2061,0.2061,0.206,0,0.1832,0.186,0.1873,0.1899,0.1917,0.1939,0.196,0.1997,0.2034,0.205,0.2109,0.211,0.2137,0.2143,0.2128,0.219,0.2176,0.216,0.2127,0.2189,0.2192,0.2202,0.2067,0.2065,0.2064,0.2063,0,0,0.1825,0.1871,0.188,0.1897,0.1939,0.1946,0.2,0.2036,0.2077,0.2126,0.2176,0.2207,0.2232,0.2233,0.2227,0.2258,0.2331,0.2248,0.2248,0.2258,0.2405,0.225,0.2245,0.2339,0.2342,0.2343,0.2378,0,0.183,0.186,0.1886,0.1923,0.1936,0.1981,0.2021,0.2068,0.2118,0.2173,0.2212,0.2258,0.2257,0.2284,0.2322,0.2332,0.2362,0.2322,0.2344,0.2344,0.2199,0.2253,0.2351,0.2385,0.2388,0.2389,0.239,0,0.182,0.1842,0.1879,0.1928,0.1942,0.1978,0.2049,0.2091,0.2176,0.2221,0.2291,0.2321,0.2387,0.2373,0.2445,0.2427,0.2432,0.2432,0.2433,0.2271,0.2207,0.2312,0.2407,0.2406,0.2405,0.2404,0.2403,0,0.1777,0.1831,0.1862,0.1879,0.1944,0.1986,0.2033,0.2116,0.2162,0.2265,0.2318,0.2392,0.2448,0.2482,0.2507,0.2491,0.2571,0.2535,0.2395,0.2383,0.248,0.2469,0.2583,0.2583,0.2583,0.2583,0.2583,0,0.1744,0.1771,0.1853,0.1867,0.1918,0.1975,0.2047,0.2109,0.2203,0.2256,0.2351,0.2395,0.2488,0.2538,0.2539,0.2501,0.2602,0.2413,0.2388,0.2507,0.2499,0.2486,0.2475,0.2584,0.2584,0.2584,0.2584,0,0.1684,0.174,0.1779,0.1865,0.1901,0.1942,0.2054,0.209,0.2205,0.2281,0.2322,0.2435,0.2495,0.2552,0.2602,0.2526,0.2506,0.2464,0.2594,0.2574,0.2282,0.2274,0.2296,0.2291,0.2287,0.2283,0.228,0,0.1648,0.1666,0.1773,0.1803,0.185,0.1927,0.1971,0.2085,0.2122,0.2276,0.2292,0.2405,0.2461,0.2407,0.2481,0.2465,0.2433,0.24,0.2333,0.2283,0.2257,0.2256,0.2253,0.2273,0.2272,0.2271,0.227,0,0.1581,0.1642,0.1678,0.1744,0.18,0.1844,0.192,0.1935,0.2057,0.2185,0.22,0.2218,0.2279,0.2302,0.2317,0.23,0.2407,0.2354,0.2362,0.2299,0.2255,0.2234,0.2237,0.2255,0.2257,0.2259,0.226,0,0.1542,0.1554,0.1618,0.1656,0.1723,0.1727,0.1782,0.1811,0.1864,0.2024,0.2026,0.214,0.2256,0.2217,0.2229,0.2206,0.2157,0.2065,0.2087,0.2104,0.2024,0.194,0.1829,0,0,0,0,0,0.1485,0.1483,0.1516,0.1542,0.1598,0.1635,0.1723,0.1776,0.1902,0.1858,0.1932,0.197,0.1981,0.2041,0.1976,0.2144,0.2173,0.2058,0.208,0.2173,0.219,0.2114,0,0,0,0,0,0,0.1446,0.1481,0.1478,0.1435,0.143,0.147,0.152,0.1605,0.1585,0.1725,0.1742,0.1846,0.1892,0.2,0.1938,0.1955,0.1924,0.2132,0.2126,0.2163,0.2179,0.2193,0.212,0,0,0,0,0]},{"header":{"parameterUnit":"m.s-1","parameterCategory":2,"la1":30.2991,"la2":30.254,"lo1":-89.0895,"lo2":-89.0444,"dy":0.0017,"dx":0.0017,"nx":28,"ny":28,"refTime":"2024-05-08T09:00:00:Z","depth":"4","parameterNumber":3,"parameterNumberName":"V-component_of_CURRENTS"},"data":[0,0,0,0,0,0,0,0,0,0,0,0,0,0,0,0,0,0,0,0,0,0,0,0,0,0,0,0,0,0,0,0,0,0,0,0,0,0,0,0,0,0,0,0,0,0,0,0,0,0,0,0,0,0,0,0,0,0,0.0151,0.0151,0,0.013,0.013,0.013,0.0117,0.0117,0.0117,0.0117,0.0095,0.0094,0.0094,0,0,0,0,0,0,0,0,0,0,0,0,0,0.0152,0.0152,0.0151,0.0151,0.0151,0.013,0.013,0.0129,0.0117,0.0117,0.0117,0.0117,0.0095,0.0094,0.0094,0,0,0,0,0,0,0,0,0,0,0,0,0,0.0143,0.0152,0.0151,0.0142,0.0141,0.013,0.013,0.0129,0.0117,0.0117,0.0117,0.0117,0.0095,0.0094,0.0094,0.009,0,0,0.0091,0.0091,0,0,0,0,0,0,0,0,0.0144,0.0143,0.0144,0.0143,0.0142,0.0126,0.0122,0.0116,0.0117,0.0126,0.0117,0.0117,0.0105,0.0104,0.01,0.0089,0.0088,0.0091,0.0091,0.009,0.009,0,0,0,0,0,0,0,0.0145,0.0144,0.0143,0.0143,0.0142,0.0129,0.0128,0.0121,0.0116,0.0125,0.0124,0.0122,0.0105,0.0101,0.0099,0.0088,0.0091,0.009,0.009,0.009,0.0085,0.0085,0,0,0,0,0,0,0.0149,0.0145,0.0143,0.0142,0.0143,0.0129,0.0128,0.0131,0.0116,0.0114,0.0122,0.0122,0.0102,0.01,0.0098,0.0113,0.009,0.0089,0.0089,0.0084,0.0085,0.0085,0,0,0,0,0,0,0.0149,0.0149,0.0144,0.0143,0.0141,0.013,0.0133,0.0131,0.0132,0.0114,0.0112,0.0127,0.0102,0.01,0.0099,0.0111,0.0089,0.0088,0.0084,0.0084,0.0085,0.0129,0,0,0,0,0,0,0.0149,0.015,0.0156,0.0143,0.0141,0.0147,0.0133,0.013,0.0131,0.013,0.0117,0.0114,0.0102,0.0101,0.0098,0.0109,0.0088,0.0083,0.0084,0.0085,0.0127,0.0131,0.0134,0,0,0,0,0,0.015,0.0159,0.0157,0.0156,0.015,0.0147,0.0145,0.0136,0.0131,0.0136,0.0127,0.0115,0.0103,0.01,0.0098,0.0109,0.0083,0.0084,0.0085,0.0125,0.013,0.0134,0,0,0,0,0,0,0.0161,0.0158,0.0155,0.0163,0.0159,0.0145,0.0149,0.0142,0.0138,0.0139,0.012,0.0118,0.012,0.0108,0.0106,0.0108,0.0091,0.0091,0.0122,0.0127,0.013,0.0143,0.0087,0,0,0,0,0,0.0167,0.0176,0.0167,0.0175,0.0175,0.0164,0.0162,0.0157,0.0149,0.0148,0.0137,0.0127,0.012,0.0119,0.0109,0.0114,0.0093,0.0118,0.0122,0.0125,0.0134,0.0107,0.0109,0.0088,0.0088,0.0088,0,0,0.0173,0.0173,0.0177,0.0178,0.0175,0.0183,0.0163,0.0166,0.0176,0.0146,0.0156,0.0138,0.0123,0.0126,0.0127,0.012,0.012,0.0126,0.0129,0.0136,0.0108,0.011,0.0112,0.0088,0.0088,0.0088,0,0,0.019,0.0191,0.0204,0.0205,0.0205,0.0201,0.0205,0.0195,0.0196,0.0201,0.0181,0.0171,0.0164,0.0153,0.0148,0.0165,0.0137,0.0162,0.0195,0.0169,0.017,0.0171,0.0146,0.0145,0.0167,0.0167,0.0167,0,0.0197,0.0215,0.0207,0.022,0.0229,0.0213,0.0231,0.0229,0.0221,0.0225,0.0213,0.0196,0.0178,0.0181,0.0186,0.0174,0.0154,0.018,0.0173,0.0174,0.0174,0.0148,0.0146,0.0169,0.0169,0.0168,0.0168,0,0.0223,0.024,0.0249,0.0265,0.0271,0.0284,0.0282,0.0287,0.0284,0.0278,0.0279,0.025,0.0242,0.0231,0.0216,0.0213,0.0196,0.0178,0.0164,0.0179,0.0151,0.0148,0.0172,0.0171,0.0171,0.017,0,0,0.0238,0.0263,0.0269,0.0289,0.0299,0.031,0.0327,0.0341,0.036,0.034,0.0356,0.0332,0.0311,0.0303,0.0275,0.0251,0.0231,0.0222,0.0219,0.02,0.0174,0.016,0.0154,0.0211,0.0211,0.0211,0.0152,0,0.0265,0.0305,0.031,0.0352,0.0374,0.0372,0.0396,0.0404,0.0406,0.0414,0.0379,0.0382,0.0341,0.0339,0.0308,0.0254,0.0226,0.0249,0.016,0.0158,0.0145,0.0151,0.021,0.015,0.0149,0.0149,0.0148,0,0.0292,0.0319,0.0365,0.0408,0.0419,0.0442,0.0481,0.0501,0.0503,0.0503,0.0488,0.0459,0.0428,0.0387,0.0302,0.0319,0.0254,0.0204,0.02,0.0171,0.0138,0.013,0.0142,0.0143,0.0143,0.0144,0.0144,0,0.0314,0.036,0.0403,0.0417,0.0458,0.0483,0.051,0.0529,0.0562,0.0562,0.0576,0.0525,0.0512,0.0422,0.0319,0.0312,0.0217,0.0192,0.0114,0.0112,0.0123,0.0123,0.0127,0.0127,0.0127,0.0127,0.0127,0,0.0342,0.0379,0.0421,0.0445,0.051,0.0524,0.0591,0.0605,0.0634,0.0679,0.0628,0.0638,0.052,0.045,0.0341,0.0223,0.0232,0.0124,0.0098,0.0142,0.0145,0.0121,0.0121,0.0125,0.0125,0.0126,0.0126,0,0.0361,0.0385,0.044,0.0495,0.0523,0.0571,0.0653,0.0697,0.0718,0.0771,0.0775,0.0728,0.0642,0.051,0.0367,0.0266,0.0144,0.0095,0.0159,0.0137,0.005,0.0053,0.0009,0.0008,0.0007,0.0006,0.0006,0,0.0372,0.0401,0.048,0.0524,0.0555,0.0632,0.0688,0.0736,0.0785,0.0827,0.0848,0.0789,0.0737,0.053,0.0381,0.0172,0.0133,0.0062,0.0048,0.006,0.0039,0.0043,0.0047,0.0005,0.0004,0.0004,0.0004,0,0.0394,0.0422,0.047,0.056,0.0628,0.0712,0.0793,0.0836,0.0894,0.0912,0.0914,0.0813,0.0714,0.0541,0.0379,0.0225,0.0104,0.0053,0.0053,0.004,0.0054,0.0035,0.004,0.0001,0.0002,0.0002,0.0002,0,0.0411,0.0447,0.051,0.0591,0.0681,0.0767,0.0812,0.0872,0.0922,0.096,0.0959,0.0852,0.0793,0.0569,0.0419,0.0268,0.022,0.0153,0.0147,0.0148,0.0197,0.0236,0.0223,0,0,0,0,0,0.0424,0.0465,0.0537,0.0627,0.0716,0.0772,0.0871,0.0908,0.0964,0.0972,0.097,0.0876,0.0672,0.0584,0.0431,0.0384,0.0181,0.0196,0.0097,-0.0014,-0.0011,0.0021,0,0,0,0,0,0,0.043,0.0495,0.0532,0.0642,0.0707,0.0811,0.0878,0.0917,0.0923,0.0953,0.0849,0.0814,0.0615,0.0758,0.042,0.0377,0.0286,0.0107,0.0103,-0.0016,-0.0013,-0.0011,0.0023,0,0,0,0,0]}]]